Time[GMT],chlorophyll[micrograms/liter](3m),QSE[ppb (QSDE)](3m),turbidity[ntus](3m)
2011-03-09 20:00,1.71,9.46,1.02
2011-03-09 21:00,1.68,9.72,0.97
2011-03-09 22:00,1.65,10.10,1.01
2011-03-09 23:00,1.68,9.95,1.03
2011-03-10 00:00,1.73,9.92,1.02
2011-03-10 01:00,1.76,9.72,1.08
2011-03-10 02:00,1.65,10.18,0.97
2011-03-10 03:00,1.73,10.13,0.98
2011-03-10 04:00,1.68,10.15,0.95
2011-03-10 05:00,1.71,9.52,0.98
2011-03-10 06:00,1.57,10.67,0.86
2011-03-10 07:00,1.51,10.41,0.71
2011-03-10 08:00,1.48,11.94,0.74
2011-03-10 09:00,1.51,12.60,0.82
2011-03-10 10:00,1.54,12.23,0.76
2011-03-10 11:00,1.48,11.97,0.74
2011-03-10 12:00,1.48,12.32,0.79
2011-03-10 13:00,1.57,12.09,0.81
2011-03-10 14:00,1.68,11.31,0.85
2011-03-10 15:00,1.68,11.57,0.77
2011-03-10 16:00,1.73,11.34,0.85
2011-03-10 17:00,1.65,10.93,0.76
2011-03-10 18:00,1.57,11.13,0.67
2011-03-10 19:00,1.71,11.42,0.64
2011-03-10 20:00,1.59,11.48,0.66
2011-03-10 21:00,1.68,11.65,0.70
2011-03-10 22:00,1.57,11.28,0.70
2011-03-10 23:00,1.48,11.25,0.69
2011-03-11 00:00,1.68,11.25,0.76
2011-03-11 01:00,1.59,11.22,0.84
2011-03-11 02:00,1.59,11.28,0.82
2011-03-11 03:00,1.59,11.25,0.75
2011-03-11 04:00,1.59,11.02,0.76
2011-03-11 05:00,1.59,11.28,0.76
2011-03-11 06:00,1.48,11.34,0.72
2011-03-11 07:00,1.51,11.68,0.74
2011-03-11 08:00,1.51,11.54,0.72
2011-03-11 09:00,1.48,11.60,0.71
2011-03-11 10:00,1.45,11.51,0.71
2011-03-11 11:00,1.40,11.31,0.70
2011-03-11 12:00,1.48,11.05,0.76
2011-03-11 13:00,1.65,11.08,0.82
2011-03-11 14:00,1.68,10.96,0.81
2011-03-11 15:00,1.68,11.16,0.85
2011-03-11 16:00,1.68,11.02,0.81
2011-03-11 17:00,1.71,11.05,0.74
2011-03-11 18:00,1.62,11.51,0.76
2011-03-11 19:00,1.71,12.60,0.82
2011-03-11 20:00,1.51,13.04,0.87
2011-03-11 21:00,1.48,13.07,0.92
2011-03-11 22:00,1.54,12.83,0.93
2011-03-11 23:00,1.48,12.52,0.90
2011-03-12 00:00,1.48,12.75,0.86
2011-03-12 01:00,1.48,12.63,0.84
2011-03-12 02:00,1.40,12.49,0.82
2011-03-12 03:00,1.54,12.60,0.86
2011-03-12 04:00,1.57,12.29,0.82
2011-03-12 05:00,1.54,11.91,0.79
2011-03-12 06:00,1.51,12.49,0.83
2011-03-12 07:00,1.40,13.15,0.85
2011-03-12 08:00,1.40,13.12,0.85
2011-03-12 09:00,1.37,13.35,0.92
2011-03-12 10:00,1.40,13.35,0.89
2011-03-12 11:00,1.40,12.95,0.92
2011-03-12 12:00,1.43,13.24,0.85
2011-03-12 13:00,1.31,13.04,0.84
2011-03-12 14:00,1.23,12.78,0.83
2011-03-12 15:00,1.17,12.58,0.83
2011-03-12 16:00,1.20,12.37,0.82
2011-03-12 18:00,1.15,11.57,0.92
2011-03-12 19:00,1.40,11.80,1.01
2011-03-12 20:00,1.54,11.86,0.88
2011-03-12 21:00,1.43,11.68,0.99
2011-03-12 22:00,1.73,11.13,0.92
2011-03-12 23:00,1.59,11.11,0.93
2011-03-13 00:00,1.48,12.11,0.84
2011-03-13 01:00,1.45,12.11,0.87
2011-03-13 02:00,1.45,12.09,0.85
2011-03-13 03:00,1.45,12.06,0.84
2011-03-13 04:00,1.43,12.03,0.84
2011-03-13 05:00,1.48,12.06,0.84
2011-03-13 06:00,1.43,12.03,0.82
2011-03-13 07:00,1.45,11.94,0.83
2011-03-13 08:00,1.54,11.74,0.87
2011-03-13 09:00,1.45,11.80,0.86
2011-03-13 10:00,1.43,11.86,0.86
2011-03-13 11:00,1.40,11.86,0.83
2011-03-13 12:00,1.40,11.97,0.77
2011-03-13 13:00,1.59,11.97,0.85
2011-03-13 14:00,1.65,11.77,0.88
2011-03-13 15:00,1.51,11.57,1.07
2011-03-13 16:00,1.71,11.62,1.10
2011-03-13 17:00,1.71,11.60,1.13
2011-03-13 18:00,1.57,11.31,1.02
2011-03-13 19:00,1.62,11.42,0.99
2011-03-13 20:00,1.62,11.54,0.96
2011-03-13 21:00,1.59,11.62,0.88
2011-03-13 22:00,1.51,11.45,0.87
2011-03-13 23:00,1.68,11.57,0.87
2011-03-14 00:00,1.57,11.68,0.92
2011-03-14 01:00,1.57,11.65,0.98
2011-03-14 02:00,1.54,11.74,1.01
2011-03-14 03:00,1.57,12.00,1.10
2011-03-14 04:00,1.59,11.88,1.12
2011-03-14 05:00,1.62,11.86,1.14
2011-03-14 06:00,1.68,11.65,1.13
2011-03-14 07:00,1.59,11.71,1.10
2011-03-14 08:00,1.54,11.68,1.12
2011-03-14 09:00,1.57,11.60,0.98
2011-03-14 10:00,1.48,10.96,1.04
2011-03-14 11:00,1.40,10.70,1.01
2011-03-14 12:00,1.51,10.85,1.04
2011-03-14 13:00,1.40,9.95,0.99
2011-03-14 14:00,1.17,8.89,0.98
2011-03-14 15:00,1.12,9.26,1.03
2011-03-14 16:00,1.23,9.32,1.06
2011-03-14 17:00,1.29,9.61,1.10
2011-03-14 18:00,1.29,9.32,1.09
2011-03-14 19:00,1.37,9.26,1.08
2011-03-14 20:00,1.40,9.32,1.04
2011-03-14 21:00,1.54,12.49,1.06
2011-03-14 22:00,1.45,11.16,0.98
2011-03-14 23:00,1.37,12.86,0.96
2011-03-15 00:00,1.51,12.32,0.98
2011-03-15 01:00,1.54,13.32,1.02
2011-03-15 02:00,1.51,11.05,0.95
2011-03-15 03:00,1.48,11.11,0.95
2011-03-15 04:00,1.51,11.08,0.95
2011-03-15 05:00,1.48,11.39,1.05
2011-03-15 06:00,1.54,12.37,0.99
2011-03-15 07:00,1.54,11.65,1.00
2011-03-15 08:00,1.45,11.37,0.95
2011-03-15 09:00,1.48,10.18,1.00
2011-03-15 10:00,1.43,12.03,0.88
2011-03-15 11:00,1.34,11.54,0.87
2011-03-15 12:00,1.48,12.69,0.92
2011-03-15 13:00,1.43,13.07,0.90
2011-03-15 14:00,1.34,12.89,0.93
2011-03-15 15:00,1.17,12.52,0.99
2011-03-15 16:00,1.48,14.10,0.95
2011-03-15 17:00,1.20,12.89,0.96
2011-03-15 18:00,1.23,12.09,0.99
2011-03-15 19:00,1.17,12.09,0.95
2011-03-15 20:00,1.31,11.97,0.91
2011-03-15 21:00,1.54,11.71,0.89
2011-03-15 22:00,1.48,11.19,0.90
2011-03-15 23:00,1.37,11.57,0.82
2011-03-16 00:00,1.34,12.23,0.79
2011-03-16 01:00,1.31,12.20,0.77
2011-03-16 02:00,1.34,12.26,0.79
2011-03-16 03:00,1.40,12.00,0.88
2011-03-16 04:00,1.37,11.83,0.86
2011-03-16 05:00,1.37,11.97,0.86
2011-03-16 06:00,1.40,11.97,0.87
2011-03-16 07:00,1.40,11.94,0.88
2011-03-16 08:00,1.45,11.86,0.99
2011-03-16 09:00,1.45,11.60,0.98
2011-03-16 10:00,1.37,11.65,1.03
2011-03-16 11:00,1.31,11.68,1.06
2011-03-16 12:00,1.34,11.60,0.99
2011-03-16 13:00,1.54,11.39,0.98
2011-03-16 14:00,1.57,11.42,0.98
2011-03-16 15:00,1.62,11.51,1.13
2011-03-16 16:00,1.62,11.48,1.00
2011-03-16 17:00,1.51,11.68,1.13
2011-03-16 18:00,1.62,11.71,1.17
2011-03-16 19:00,1.51,11.80,1.27
2011-03-16 20:00,1.43,11.74,1.24
2011-03-16 21:00,1.59,11.57,1.06
2011-03-16 22:00,1.45,11.51,1.04
2011-03-16 23:00,1.40,11.42,0.99
2011-03-17 00:00,1.37,11.02,0.99
2011-03-17 01:00,1.62,11.65,0.97
2011-03-17 02:00,1.43,11.37,0.95
2011-03-17 03:00,1.40,11.62,0.94
2011-03-17 04:00,1.43,11.68,1.13
2011-03-17 05:00,1.43,11.91,1.28
2011-03-17 06:00,1.43,11.11,1.16
2011-03-17 07:00,1.43,11.48,1.20
2011-03-17 08:00,1.43,11.16,1.27
2011-03-17 09:00,1.45,11.11,1.16
2011-03-17 10:00,1.37,11.31,0.96
2011-03-17 11:00,1.31,10.73,0.88
2011-03-17 12:00,1.48,11.22,0.94
2011-03-17 13:00,1.37,11.25,0.89
2011-03-17 14:00,1.23,11.71,0.86
2011-03-17 15:00,1.15,11.16,0.96
2011-03-17 16:00,1.12,11.13,0.93
2011-03-17 17:00,1.29,11.31,1.07
2011-03-17 18:00,1.23,10.85,1.05
2011-03-17 19:00,1.29,10.73,1.00
2011-03-17 20:00,1.45,10.39,1.22
2011-03-17 21:00,1.59,10.53,1.03
2011-03-17 22:00,1.45,10.73,0.95
2011-03-17 23:00,1.37,10.79,0.94
2011-03-18 00:00,1.40,10.90,0.92
2011-03-18 01:00,1.34,11.57,0.84
2011-03-18 02:00,1.40,11.68,0.85
2011-03-18 03:00,1.34,12.60,0.87
2011-03-18 04:00,1.34,12.20,0.90
2011-03-18 05:00,1.31,13.15,0.89
2011-03-18 06:00,1.34,12.98,0.87
2011-03-18 07:00,1.34,12.43,0.93
2011-03-18 08:00,1.34,12.46,0.90
2011-03-18 09:00,1.34,12.09,0.93
2011-03-18 10:00,1.34,12.89,0.92
2011-03-18 11:00,1.34,12.23,1.01
2011-03-18 12:00,1.34,12.81,0.91
2011-03-18 13:00,1.34,12.52,0.86
2011-03-18 14:00,1.37,12.17,0.86
2011-03-18 15:00,1.20,11.83,0.88
2011-03-18 16:00,1.12,11.39,0.90
2011-03-18 17:00,1.15,11.71,0.91
2011-03-18 18:00,1.20,11.37,0.95
2011-03-18 19:00,1.34,11.13,1.08
2011-03-18 20:00,1.48,10.99,2.04
2011-03-18 21:00,1.57,11.02,2.07
2011-03-18 22:00,1.54,11.11,1.81
2011-03-18 23:00,1.43,11.13,1.44
2011-03-19 00:00,1.40,11.34,0.99
2011-03-19 01:00,1.45,11.31,0.98
2011-03-19 02:00,1.40,11.34,0.96
2011-03-19 03:00,1.34,11.37,0.93
2011-03-19 04:00,1.40,11.13,1.13
2011-03-19 05:00,1.37,10.90,1.17
2011-03-19 06:00,1.40,11.19,1.27
2011-03-19 07:00,1.37,10.82,1.43
2011-03-19 08:00,1.37,10.88,1.37
2011-03-19 09:00,1.40,10.96,1.53
2011-03-19 10:00,1.43,11.02,1.74
2011-03-19 11:00,1.34,10.07,1.47
2011-03-19 12:00,1.29,9.92,1.31
2011-03-19 13:00,1.26,9.52,1.13
2011-03-19 14:00,1.26,10.24,0.90
2011-03-19 15:00,0.95,11.60,0.84
2011-03-19 16:00,0.95,11.31,0.84
2011-03-19 17:00,1.06,11.60,0.77
2011-03-19 18:00,1.09,10.99,0.83
2011-03-19 19:00,1.17,9.64,1.24
2011-03-19 20:00,1.26,9.55,1.42
2011-03-19 21:00,1.45,9.75,1.45
2011-03-19 22:00,1.48,10.04,1.45
2011-03-19 23:00,1.34,9.75,1.53
2011-03-20 00:00,1.37,9.52,1.32
2011-03-20 01:00,1.40,9.84,1.20
2011-03-20 02:00,1.31,9.78,1.07
2011-03-20 03:00,1.26,10.56,0.86
2011-03-20 04:00,1.20,11.11,0.76
2011-03-20 05:00,1.20,10.90,0.77
2011-03-20 06:00,1.20,10.70,0.78
2011-03-20 07:00,1.29,9.84,1.13
2011-03-20 08:00,1.26,9.66,1.20
2011-03-20 09:00,1.31,9.75,1.89
2011-03-20 10:00,1.34,9.87,1.17
2011-03-20 11:00,1.31,9.81,1.10
2011-03-20 12:00,1.34,9.58,1.36
2011-03-20 13:00,1.26,9.66,1.23
2011-03-20 14:00,1.01,9.03,1.20
2011-03-20 15:00,0.95,10.13,0.84
2011-03-20 16:00,0.95,10.07,0.83
2011-03-20 17:00,0.92,9.98,0.85
2011-03-20 18:00,1.09,9.72,0.81
2011-03-20 19:00,1.12,8.89,1.14
2011-03-20 20:00,1.23,9.00,1.21
2011-03-20 21:00,1.34,8.94,1.34
2011-03-20 22:00,1.43,9.23,1.59
2011-03-20 23:00,1.37,9.09,1.18
2011-03-21 00:00,1.37,9.49,0.98
2011-03-21 01:00,1.31,10.41,0.84
2011-03-21 02:00,1.26,12.40,0.79
2011-03-21 03:00,1.23,12.60,0.79
2011-03-21 04:00,1.23,13.27,0.77
2011-03-21 05:00,1.20,12.55,0.78
2011-03-21 06:00,1.23,12.20,0.85
2011-03-21 07:00,1.23,12.11,0.85
2011-03-21 08:00,1.26,12.20,0.88
2011-03-21 09:00,1.31,11.11,1.31
2011-03-21 10:00,1.29,11.37,1.06
2011-03-21 11:00,1.34,11.65,0.94
2011-03-21 12:00,1.40,11.57,0.98
2011-03-21 13:00,1.37,11.48,1.07
2011-03-21 14:00,1.40,11.28,1.15
2011-03-21 15:00,1.40,11.28,1.07
2011-03-21 16:00,1.43,11.51,0.92
2011-03-21 17:00,1.57,11.19,0.93
2011-03-21 18:00,1.54,10.85,1.07
2011-03-21 19:00,1.45,11.13,1.10
2011-03-21 20:00,1.48,11.02,1.09
2011-03-21 21:00,1.45,10.90,1.27
2011-03-21 22:00,1.54,10.76,1.93
2011-03-21 23:00,1.43,10.76,2.31
2011-03-22 00:00,1.43,10.76,2.04
2011-03-22 01:00,1.43,10.82,1.52
2011-03-22 02:00,1.37,10.88,1.27
2011-03-22 03:00,1.29,10.59,1.13
2011-03-22 04:00,1.29,10.56,0.99
2011-03-22 05:00,1.26,10.73,1.02
2011-03-22 06:00,1.26,10.64,1.00
2011-03-22 07:00,1.20,10.30,1.13
2011-03-22 08:00,1.29,10.76,1.19
2011-03-22 09:00,1.31,10.76,1.24
2011-03-22 10:00,1.37,10.70,1.73
2011-03-22 11:00,1.43,10.67,2.87
2011-03-22 12:00,1.54,10.76,3.12
2011-03-22 13:00,1.45,10.64,2.34
2011-03-22 14:00,1.48,10.36,1.93
2011-03-22 15:00,1.29,10.10,1.42
2011-03-22 16:00,1.43,10.18,1.36
2011-03-22 17:00,1.23,9.98,1.22
2011-03-22 18:00,1.29,9.78,1.07
2011-03-22 19:00,1.65,9.98,1.09
2011-03-22 20:00,1.57,9.87,1.15
2011-03-22 21:00,1.51,10.01,1.28
2011-03-22 22:00,1.26,9.98,1.48
2011-03-22 23:00,1.29,10.15,1.49
2011-03-23 00:00,1.34,10.33,1.59
2011-03-23 01:00,1.31,10.18,1.40
2011-03-23 02:00,1.29,9.87,1.52
2011-03-23 03:00,1.40,10.41,1.27
2011-03-23 04:00,1.31,11.68,1.02
2011-03-23 05:00,1.34,12.66,1.00
2011-03-23 06:00,1.37,13.01,0.93
2011-03-23 07:00,1.29,12.43,0.91
2011-03-23 08:00,1.34,12.26,0.88
2011-03-23 09:00,1.34,11.42,0.99
2011-03-23 10:00,1.37,12.43,0.95
2011-03-23 11:00,1.29,12.55,1.10
2011-03-23 12:00,1.40,11.54,1.73
2011-03-23 13:00,1.37,11.13,1.68
2011-03-23 14:00,1.17,11.57,1.32
2011-03-23 15:00,1.15,11.02,1.72
2011-03-23 16:00,1.01,10.70,1.29
2011-03-23 17:00,1.17,10.15,1.15
2011-03-23 18:00,1.15,11.13,0.96
2011-03-23 19:00,1.31,11.51,0.96
2011-03-23 20:00,1.40,11.39,0.95
2011-03-23 21:00,1.43,11.25,0.96
2011-03-23 22:00,1.59,10.85,1.18
2011-03-23 23:00,2.01,11.22,1.04
2011-03-24 00:00,1.76,10.96,1.15
2011-03-24 01:00,1.51,10.85,1.25
2011-03-24 02:00,1.37,10.79,1.28
2011-03-24 03:00,1.43,10.79,1.24
2011-03-24 04:00,1.34,10.79,1.23
2011-03-24 05:00,1.29,11.25,0.94
2011-03-24 06:00,1.29,11.45,0.91
2011-03-24 07:00,1.23,11.80,0.84
2011-03-24 08:00,1.26,11.74,0.83
2011-03-24 09:00,1.29,11.37,0.89
2011-03-24 10:00,1.26,11.42,0.87
2011-03-24 11:00,1.31,10.93,1.12
2011-03-24 12:00,1.40,10.62,1.22
2011-03-24 13:00,1.40,10.50,1.23
2011-03-24 14:00,1.43,10.44,1.30
2011-03-24 15:00,1.31,10.47,1.12
2011-03-24 16:00,1.26,10.21,1.35
2011-03-24 17:00,1.09,10.13,1.27
2011-03-24 18:00,1.29,10.18,1.14
2011-03-24 19:00,1.20,11.71,0.88
2011-03-24 20:00,1.40,12.06,0.93
2011-03-24 21:00,1.48,12.98,0.89
2011-03-24 22:00,1.48,12.29,1.04
2011-03-24 23:00,1.34,12.14,0.95
2011-03-25 00:00,1.43,11.74,1.06
2011-03-25 01:00,1.45,11.77,1.00
2011-03-25 02:00,1.48,11.37,1.11
2011-03-25 03:00,1.37,13.15,0.95
2011-03-25 04:00,1.43,11.34,1.07
2011-03-25 05:00,1.34,12.34,0.96
2011-03-25 06:00,1.40,14.33,0.88
2011-03-25 07:00,1.40,14.77,0.90
2011-03-25 08:00,1.43,14.56,0.88
2011-03-25 09:00,1.48,14.74,0.87
2011-03-25 10:00,1.45,14.88,0.86
2011-03-25 11:00,1.34,14.71,0.85
2011-03-25 12:00,1.54,13.61,0.89
2011-03-25 13:00,1.54,13.64,0.90
2011-03-25 14:00,1.40,13.47,0.91
2011-03-25 15:00,1.15,13.64,0.85
2011-03-25 16:00,1.15,13.32,0.93
2011-03-25 17:00,1.37,11.94,1.14
2011-03-25 18:00,1.26,12.72,0.82
2011-03-25 19:00,1.71,12.75,0.82
2011-03-25 20:00,1.37,12.40,0.98
2011-03-25 21:00,1.51,12.40,0.85
2011-03-25 22:00,1.45,12.11,0.87
2011-03-25 23:00,1.51,12.34,0.84
2011-03-26 00:00,1.59,12.60,0.80
2011-03-26 01:00,1.48,12.29,0.89
2011-03-26 02:00,1.51,12.09,0.93
2011-03-26 03:00,1.43,11.60,1.05
2011-03-26 04:00,1.43,11.54,1.10
2011-03-26 05:00,1.40,11.91,1.01
2011-03-26 06:00,1.37,11.88,1.01
2011-03-26 07:00,1.37,12.11,0.95
2011-03-26 08:00,1.40,12.14,0.94
2011-03-26 09:00,1.40,11.83,0.94
2011-03-26 10:00,1.40,12.26,0.86
2011-03-26 11:00,1.43,12.11,0.89
2011-03-26 12:00,1.40,11.80,0.96
2011-03-26 13:00,1.34,11.28,1.01
2011-03-26 14:00,1.09,10.73,1.11
2011-03-26 15:00,1.06,10.70,1.05
2011-03-26 16:00,1.06,10.36,1.13
2011-03-26 17:00,1.03,10.21,1.13
2011-03-26 18:00,1.03,10.39,1.07
2011-03-26 19:00,1.06,10.04,1.10
2011-03-26 20:00,1.12,10.21,1.07
2011-03-26 21:00,1.20,9.98,1.01
2011-03-26 22:00,1.26,9.78,1.00
2011-03-26 23:00,1.31,10.13,1.04
2011-03-27 00:00,1.29,10.18,1.01
2011-03-27 01:00,1.31,10.30,1.07
2011-03-27 02:00,1.23,10.15,1.07
2011-03-27 03:00,1.29,10.21,1.04
2011-03-27 04:00,1.23,10.04,1.14
2011-03-27 05:00,1.26,9.92,1.12
2011-03-27 06:00,1.26,9.98,1.11
2011-03-27 07:00,1.23,10.18,1.01
2011-03-27 08:00,1.12,8.94,0.93
2011-03-27 09:00,1.20,9.61,0.91
2011-03-27 10:00,1.17,9.46,0.88
2011-03-27 11:00,1.20,9.84,0.90
2011-03-27 12:00,1.26,10.01,0.95
2011-03-27 13:00,1.09,9.75,1.06
2011-03-27 14:00,0.95,9.46,1.04
2011-03-27 15:00,0.95,9.35,1.04
2011-03-27 16:00,0.95,9.26,1.13
2011-03-27 17:00,0.95,8.97,1.10
2011-03-27 18:00,0.98,8.77,1.02
2011-03-27 19:00,0.95,8.80,1.09
2011-03-27 20:00,1.03,8.92,1.08
2011-03-27 21:00,1.23,8.89,0.98
2011-03-27 22:00,1.15,8.69,0.93
2011-03-27 23:00,1.23,8.89,0.92
2011-03-28 00:00,1.26,8.94,0.99
2011-03-28 01:00,1.15,8.77,0.93
2011-03-28 02:00,1.15,8.89,0.95
2011-03-28 03:00,1.12,8.69,0.93
2011-03-28 04:00,1.09,8.63,0.92
2011-03-28 05:00,1.12,8.80,0.96
2011-03-28 06:00,1.12,8.77,0.96
2011-03-28 07:00,1.12,8.69,0.95
2011-03-28 08:00,1.12,8.71,0.93
2011-03-28 09:00,1.09,8.51,0.88
2011-03-28 10:00,1.12,8.40,0.80
2011-03-28 11:00,1.12,8.31,0.74
2011-03-28 12:00,1.06,8.25,0.75
2011-03-28 13:00,0.92,8.34,0.83
2011-03-28 14:00,0.87,8.14,0.82
2011-03-28 15:00,0.87,8.08,0.85
2011-03-28 16:00,0.84,7.96,0.85
2011-03-28 17:00,0.84,7.71,0.86
2011-03-28 18:00,0.90,7.85,0.93
2011-03-28 19:00,0.90,7.73,0.89
2011-03-28 20:00,0.92,7.68,0.88
2011-03-28 21:00,1.01,7.59,0.85
2011-03-28 22:00,1.12,7.62,0.81
2011-03-28 23:00,1.06,7.62,0.77
2011-03-29 00:00,1.03,7.56,0.73
2011-03-29 01:00,1.06,7.73,0.79
2011-03-29 02:00,1.01,7.62,0.76
2011-03-29 03:00,1.01,7.68,0.74
2011-03-29 04:00,1.03,7.65,0.76
2011-03-29 05:00,1.01,7.79,0.81
2011-03-29 06:00,1.01,7.76,0.80
2011-03-29 07:00,1.03,7.79,0.84
2011-03-29 08:00,1.03,7.71,0.79
2011-03-29 09:00,1.01,7.65,0.76
2011-03-29 10:00,1.03,7.56,0.74
2011-03-29 11:00,1.01,7.59,0.73
2011-03-29 12:00,1.01,7.42,0.70
2011-03-29 13:00,0.90,7.22,0.68
2011-03-29 14:00,0.84,7.13,0.66
2011-03-29 15:00,0.81,7.24,0.73
2011-03-29 16:00,0.78,7.22,0.73
2011-03-29 17:00,0.81,7.19,0.76
2011-03-29 18:00,0.81,7.04,0.76
2011-03-29 19:00,0.84,7.07,0.78
2011-03-29 20:00,0.87,7.04,0.76
2011-03-29 21:00,0.95,6.96,0.76
2011-03-29 22:00,1.09,7.04,0.74
2011-03-29 23:00,1.06,6.98,0.71
2011-03-30 00:00,1.03,6.96,0.66
2011-03-30 01:00,1.03,6.98,0.63
2011-03-30 02:00,1.01,7.01,0.63
2011-03-30 03:00,1.01,7.10,0.66
2011-03-30 04:00,1.01,7.19,0.69
2011-03-30 05:00,1.01,7.22,0.70
2011-03-30 06:00,1.01,7.24,0.71
2011-03-30 07:00,1.06,7.24,0.72
2011-03-30 08:00,1.03,7.22,0.72
2011-03-30 09:00,1.01,7.16,0.69
2011-03-30 10:00,1.01,7.10,0.68
2011-03-30 11:00,1.03,7.01,0.67
2011-03-30 12:00,0.95,6.84,0.60
2011-03-30 13:00,0.87,6.81,0.59
2011-03-30 14:00,0.87,6.73,0.55
2011-03-30 15:00,0.81,6.70,0.60
2011-03-30 16:00,0.81,6.75,0.65
2011-03-30 17:00,0.81,6.78,0.70
2011-03-30 18:00,0.84,6.73,0.70
2011-03-30 19:00,0.78,6.67,0.70
2011-03-30 20:00,0.90,6.73,0.71
2011-03-30 21:00,1.01,6.67,0.70
2011-03-30 22:00,1.06,6.73,0.69
2011-03-30 23:00,1.03,6.75,0.65
2011-03-31 00:00,1.03,6.75,0.63
2011-03-31 01:00,1.06,6.61,0.58
2011-03-31 02:00,1.09,6.55,0.52
2011-03-31 03:00,1.09,6.55,0.54
2011-03-31 04:00,1.01,6.78,0.61
2011-03-31 05:00,1.01,6.78,0.62
2011-03-31 06:00,1.03,6.87,0.64
2011-03-31 07:00,1.06,6.96,0.70
2011-03-31 08:00,1.03,7.04,0.66
2011-03-31 09:00,1.03,6.98,0.66
2011-03-31 10:00,1.03,6.93,0.63
2011-03-31 11:00,0.98,6.73,0.62
2011-03-31 12:00,1.01,6.73,0.58
2011-03-31 13:00,1.09,6.67,0.56
2011-03-31 14:00,1.15,6.52,0.54
2011-03-31 15:00,1.03,6.49,0.54
2011-03-31 16:00,0.90,6.47,0.57
2011-03-31 17:00,0.84,6.61,0.59
2011-03-31 18:00,0.87,6.73,0.71
2011-03-31 19:00,0.95,6.84,0.81
2011-03-31 20:00,1.09,6.90,0.71
2011-03-31 21:00,1.15,6.75,0.69
2011-03-31 22:00,1.06,6.90,0.73
2011-03-31 23:00,1.03,6.73,0.65
2011-04-01 00:00,1.06,6.75,0.66
2011-04-01 01:00,1.09,6.64,0.62
2011-04-01 02:00,1.12,6.73,0.66
2011-04-01 03:00,1.12,6.61,0.56
2011-04-01 04:00,1.06,6.58,0.57
2011-04-01 05:00,1.01,6.73,0.60
2011-04-01 06:00,1.03,6.93,0.67
2011-04-01 07:00,1.09,6.96,0.77
2011-04-01 08:00,1.06,7.01,0.71
2011-04-01 09:00,1.09,7.01,0.72
2011-04-01 10:00,1.09,6.98,0.72
2011-04-01 11:00,1.06,6.93,0.71
2011-04-01 12:00,1.01,6.78,0.59
2011-04-01 13:00,1.06,6.73,0.56
2011-04-01 14:00,1.12,6.64,0.51
2011-04-01 15:00,1.17,6.58,0.49
2011-04-01 16:00,1.09,6.55,0.54
2011-04-01 17:00,1.03,6.64,0.61
2011-04-01 18:00,1.20,6.90,0.73
2011-04-01 19:00,1.20,6.93,0.78
2011-04-01 20:00,1.23,6.96,0.88
2011-04-01 21:00,1.23,6.96,0.90
2011-04-01 22:00,1.17,6.96,0.87
2011-04-01 23:00,1.15,6.93,0.80
2011-04-02 00:00,1.15,6.78,0.70
2011-04-02 01:00,1.17,6.81,0.71
2011-04-02 02:00,1.17,6.84,0.69
2011-04-02 03:00,1.40,7.42,0.78
2011-04-02 04:00,1.93,9.32,0.71
2011-04-02 05:00,1.96,9.29,0.70
2011-04-02 06:00,1.68,8.40,0.68
2011-04-02 07:00,1.71,8.71,0.67
2011-04-02 08:00,1.37,7.79,0.76
2011-04-02 09:00,1.29,7.71,0.81
2011-04-02 10:00,1.57,8.45,0.72
2011-04-02 11:00,1.59,8.37,0.68
2011-04-02 12:00,1.71,8.51,0.75
2011-04-02 13:00,1.17,8.08,0.78
2011-04-02 14:00,1.29,8.34,0.74
2011-04-02 15:00,1.26,8.37,0.65
2011-04-02 16:00,1.17,8.08,0.64
2011-04-02 17:00,1.71,8.20,0.66
2011-04-02 18:00,1.85,8.08,0.63
2011-04-02 19:00,1.34,8.02,0.63
2011-04-02 20:00,1.48,7.91,0.63
2011-04-02 21:00,1.99,7.76,0.63
2011-04-02 22:00,2.15,8.17,0.64
2011-04-02 23:00,2.13,7.88,0.65
2011-04-03 00:00,2.07,8.25,0.59
2011-04-03 01:00,1.87,7.73,0.68
2011-04-03 02:00,1.68,7.68,0.74
2011-04-03 03:00,1.96,7.91,0.65
2011-04-03 04:00,1.93,7.94,0.65
2011-04-03 05:00,1.76,7.85,0.65
2011-04-03 06:00,1.82,7.91,0.63
2011-04-03 07:00,1.73,7.79,0.62
2011-04-03 08:00,1.79,7.99,0.61
2011-04-03 09:00,1.79,8.05,0.65
2011-04-03 10:00,1.79,8.02,0.65
2011-04-03 11:00,1.76,7.85,0.71
2011-04-03 12:00,1.73,7.82,0.66
2011-04-03 13:00,1.29,7.71,0.62
2011-04-03 14:00,1.17,7.62,0.63
2011-04-03 15:00,1.09,7.39,0.65
2011-04-03 16:00,1.17,7.22,0.66
2011-04-03 17:00,1.15,7.22,0.63
2011-04-03 18:00,1.20,7.27,0.66
2011-04-03 19:00,1.40,7.22,0.66
2011-04-03 20:00,1.51,7.27,0.77
2011-04-03 21:00,1.79,7.27,0.84
2011-04-03 22:00,1.79,7.30,0.88
2011-04-03 23:00,1.71,7.39,0.87
2011-04-04 00:00,1.79,7.39,0.87
2011-04-04 01:00,1.79,7.39,0.82
2011-04-04 02:00,1.85,7.42,0.74
2011-04-04 03:00,1.93,7.36,0.72
2011-04-04 04:00,1.99,7.30,0.68
2011-04-04 05:00,1.85,7.30,0.65
2011-04-04 06:00,1.73,7.36,0.70
2011-04-04 07:00,1.71,7.36,0.76
2011-04-04 08:00,1.65,7.45,0.85
2011-04-04 09:00,1.62,7.56,0.81
2011-04-04 10:00,1.59,7.59,0.82
2011-04-04 11:00,1.59,7.56,0.90
2011-04-04 12:00,1.85,7.45,0.95
2011-04-04 13:00,1.93,7.47,0.84
2011-04-04 14:00,1.96,7.45,0.77
2011-04-04 15:00,1.90,7.36,0.74
2011-04-04 16:00,2.04,7.33,0.76
2011-04-04 17:00,1.90,7.22,0.68
2011-04-04 18:00,1.96,7.33,0.76
2011-04-04 19:00,1.96,7.33,0.77
2011-04-04 20:00,1.96,7.30,0.79
2011-04-04 21:00,1.87,7.47,0.85
2011-04-04 22:00,1.85,7.50,0.87
2011-04-04 23:00,1.79,7.50,0.87
2011-04-05 00:00,1.85,7.47,0.85
2011-04-05 01:00,1.82,7.42,0.77
2011-04-05 02:00,1.85,7.36,0.77
2011-04-05 03:00,1.87,7.30,0.76
2011-04-05 04:00,1.87,7.24,0.71
2011-04-05 06:00,1.79,7.24,0.66
2011-04-05 07:00,1.71,7.33,0.70
2011-04-05 08:00,1.68,7.53,0.81
2011-04-05 09:00,1.73,7.59,0.81
2011-04-05 10:00,1.68,7.59,0.88
2011-04-05 11:00,1.65,7.62,0.96
2011-04-05 12:00,1.76,7.65,0.92
2011-04-05 13:00,1.87,7.53,0.95
2011-04-05 14:00,1.96,7.42,0.80
2011-04-05 15:00,1.90,7.36,0.79
2011-04-05 16:00,2.07,7.30,0.74
2011-04-05 17:00,2.24,7.19,0.71
2011-04-05 18:00,2.27,7.24,0.72
2011-04-05 19:00,2.38,7.33,0.77
2011-04-05 20:00,2.04,7.45,0.84
2011-04-05 21:00,1.90,7.47,0.86
2011-04-05 22:00,1.96,7.59,0.88
2011-04-05 23:00,1.76,7.62,0.91
2011-04-06 00:00,1.76,7.71,0.91
2011-04-06 01:00,1.71,7.71,0.87
2011-04-06 02:00,1.85,7.62,0.84
2011-04-06 03:00,1.99,7.36,0.81
2011-04-06 04:00,2.04,7.33,0.89
2011-04-06 05:00,1.93,7.42,0.77
2011-04-06 06:00,1.85,7.62,0.82
2011-04-06 07:00,1.76,7.56,0.74
2011-04-06 08:00,1.71,7.62,0.77
2011-04-06 09:00,1.62,7.68,0.80
2011-04-06 10:00,1.57,7.94,0.88
2011-04-06 11:00,1.68,7.76,1.01
2011-04-06 12:00,1.65,7.73,1.01
2011-04-06 13:00,1.37,7.62,0.98
2011-04-06 14:00,1.20,7.45,0.86
2011-04-06 15:00,1.23,7.33,0.82
2011-04-06 16:00,1.29,7.16,0.79
2011-04-06 17:00,1.20,6.98,0.77
2011-04-06 18:00,1.26,6.90,0.81
2011-04-06 19:00,1.65,6.93,0.78
2011-04-06 20:00,2.10,7.13,0.81
2011-04-06 21:00,2.10,7.10,0.85
2011-04-06 22:00,1.96,7.33,0.90
2011-04-06 23:00,1.87,7.30,0.90
2011-04-07 00:00,1.85,7.45,0.94
2011-04-07 01:00,1.82,7.42,0.93
2011-04-07 02:00,1.90,7.24,0.85
2011-04-07 03:00,2.07,7.22,0.87
2011-04-07 04:00,2.04,7.16,0.80
2011-04-07 05:00,2.07,7.22,0.74
2011-04-07 06:00,2.07,7.22,0.71
2011-04-07 07:00,2.07,7.16,0.71
2011-04-07 08:00,2.01,7.24,0.79
2011-04-07 09:00,1.87,7.33,0.79
2011-04-07 10:00,1.99,7.36,0.91
2011-04-07 11:00,2.01,7.45,0.94
2011-04-07 12:00,1.96,7.47,0.88
2011-04-07 13:00,1.51,7.42,0.99
2011-04-07 14:00,1.34,7.33,0.94
2011-04-07 15:00,1.26,7.36,0.93
2011-04-07 16:00,1.26,7.27,0.85
2011-04-07 17:00,1.31,7.13,0.82
2011-04-07 18:00,1.29,6.78,0.75
2011-04-07 19:00,1.51,6.75,0.76
2011-04-07 20:00,1.65,6.84,0.81
2011-04-07 21:00,2.10,6.87,0.80
2011-04-07 22:00,2.35,7.07,0.91
2011-04-07 23:00,2.15,7.19,0.92
2011-04-08 00:00,2.07,7.33,0.93
2011-04-08 01:00,2.13,7.30,0.93
2011-04-08 02:00,2.18,7.22,0.90
2011-04-08 03:00,2.15,7.13,0.85
2011-04-08 04:00,2.13,7.07,0.80
2011-04-08 05:00,2.04,7.01,0.75
2011-04-08 06:00,2.04,6.98,0.73
2011-04-08 07:00,2.10,7.04,0.71
2011-04-08 08:00,2.18,7.10,0.77
2011-04-08 09:00,1.99,7.19,0.77
2011-04-08 10:00,2.07,7.36,0.88
2011-04-08 11:00,2.15,7.42,0.98
2011-04-08 12:00,2.21,7.33,0.99
2011-04-08 13:00,1.62,7.33,0.98
2011-04-08 14:00,1.54,7.27,1.02